TimeCST,TemperatureF,Dew PointF,Humidity,Sea Level PressureIn,VisibilityMPH,Wind Direction,Wind SpeedMPH,Gust SpeedMPH,PrecipitationIn,Events,Conditions,WindDirDegrees,DateUTC
12:55 AM,24.1,19.8,84,30.34,10.0,Variable,3.5,-,N/A,,Clear,0,2013-01-05 06:55:00
1:55 AM,22.3,19.2,88,30.34,10.0,Calm,Calm,-,N/A,,Clear,0,2013-01-05 07:55:00
2:55 AM,24.6,20.7,85,30.34,10.0,Calm,Calm,-,N/A,,Clear,0,2013-01-05 08:55:00
3:55 AM,21.6,18.9,89,30.33,10.0,Calm,Calm,-,N/A,,Partly Cloudy,0,2013-01-05 09:55:00
4:55 AM,22.1,19.6,90,30.32,10.0,Calm,Calm,-,N/A,,Partly Cloudy,0,2013-01-05 10:55:00
5:55 AM,22.1,19.8,91,30.32,10.0,Calm,Calm,-,N/A,,Clear,0,2013-01-05 11:55:00
6:55 AM,22.6,19.8,89,30.34,10.0,Calm,Calm,-,N/A,,Overcast,0,2013-01-05 12:55:00
7:55 AM,23.5,20.5,88,30.33,10.0,Calm,Calm,-,N/A,,Mostly Cloudy,0,2013-01-05 13:55:00
8:55 AM,28.8,25.3,87,30.33,10.0,Variable,3.5,-,N/A,,Scattered Clouds,0,2013-01-05 14:55:00
9:55 AM,33.1,26.1,75,30.34,10.0,South,3.5,-,N/A,,Mostly Cloudy,180,2013-01-05 15:55:00
10:31 AM,35.6,26.6,70,30.32,10.0,Calm,Calm,-,N/A,Rain,Light Rain,0,2013-01-05 16:31:00
10:44 AM,35.6,26.6,70,30.32,10.0,Variable,4.6,-,N/A,,Scattered Clouds,0,2013-01-05 16:44:00
10:55 AM,36.0,25.9,67,30.32,10.0,Calm,Calm,-,0.00,,Scattered Clouds,0,2013-01-05 16:55:00
11:55 AM,37.0,28.2,70,30.28,10.0,Calm,Calm,-,N/A,,Mostly Cloudy,0,2013-01-05 17:55:00
12:55 PM,40.6,27.3,59,30.23,10.0,South,4.6,-,N/A,,Partly Cloudy,170,2013-01-05 18:55:00
1:55 PM,40.5,28.6,63,30.20,10.0,Variable,3.5,-,N/A,,Overcast,0,2013-01-05 19:55:00
2:55 PM,40.5,28.8,63,30.19,10.0,South,5.8,-,N/A,,Overcast,170,2013-01-05 20:55:00
3:55 PM,39.2,29.3,68,30.19,10.0,Calm,Calm,-,N/A,,Overcast,0,2013-01-05 21:55:00
4:55 PM,38.1,30.0,73,30.18,10.0,Variable,4.6,-,N/A,,Overcast,0,2013-01-05 22:55:00
5:55 PM,37.2,30.6,77,30.18,10.0,Variable,4.6,-,N/A,,Overcast,0,2013-01-05 23:55:00
6:55 PM,37.8,31.1,77,30.19,10.0,South,4.6,-,N/A,,Overcast,180,2013-01-06 00:55:00
7:55 PM,37.2,30.9,78,30.19,10.0,Variable,3.5,-,N/A,,Overcast,0,2013-01-06 01:55:00
8:55 PM,37.2,30.2,76,30.17,10.0,Calm,Calm,-,N/A,,Overcast,0,2013-01-06 02:55:00
9:55 PM,37.4,30.4,76,30.17,10.0,Variable,3.5,-,N/A,,Overcast,0,2013-01-06 03:55:00
10:55 PM,37.2,30.6,77,30.16,10.0,Calm,Calm,-,N/A,,Overcast,0,2013-01-06 04:55:00
11:55 PM,37.2,31.3,79,30.13,10.0,Variable,3.5,-,N/A,,Overcast,0,2013-01-06 05:55:00